This is the latest recevied weather packets stored in our database for station/object N8TWM-13. If no packets are shown the sender has not sent any weather packets the latest 10 day(s).
| Time | Temp. | Humidity | Pressure | Rain* | Wind** | Luminosity | Snow |
|---|---|---|---|---|---|---|---|
| 1777987794 | 17.78° C | 75% | 1007.5 hPa | 0 mm | - | 459 W/m² | - |
| 1777987491 | 17.22° C | 76% | 1007.5 hPa | 0 mm | - | 447 W/m² | - |
| 1777987189 | 17.22° C | 77% | 1007.6 hPa | 0 mm | - | 480 W/m² | - |
| 1777986885 | 16.67° C | 77% | 1007.8 hPa | 0 mm | - | 174 W/m² | - |
| 1777986583 | 16.67° C | 79% | 1007.5 hPa | 0 mm | - | 404 W/m² | - |
| 1777986281 | 16.11° C | 79% | 1007.3 hPa | 0 mm | - | 378 W/m² | - |
| 1777985979 | 15.56° C | 80% | 1007.2 hPa | 0 mm | - | 165 W/m² | - |
| 1777985676 | 15.56° C | 81% | 1007.2 hPa | 0 mm | - | 151 W/m² | - |
| 1777985372 | 15.56° C | 81% | 1007.2 hPa | 0 mm | - | 295 W/m² | - |
| 1777985069 | 15.56° C | 82% | 1007.2 hPa | 0 mm | - | 292 W/m² | - |
| 1777984765 | 15° C | 82% | 1007 hPa | 0 mm | - | 223 W/m² | - |
| 1777984462 | 15° C | 83% | 1007.3 hPa | 0 mm | - | 111 W/m² | - |
| 1777984158 | 15° C | 83% | 1007.1 hPa | 0 mm | - | 94 W/m² | - |
| 1777983856 | 14.44° C | 83% | 1007.1 hPa | 0 mm | - | 91 W/m² | - |
| 1777983552 | 14.44° C | 83% | 1007 hPa | 0 mm | - | 63 W/m² | - |
| 1777983249 | 14.44° C | 83% | 1006.9 hPa | 0 mm | - | 38 W/m² | - |
| 1777982945 | 14.44° C | 83% | 1006.9 hPa | 0 mm | - | 30 W/m² | - |
| 1777982642 | 14.44° C | 83% | 1007 hPa | 0 mm | - | 28 W/m² | - |
| 1777982340 | 14.44° C | 83% | 1006.8 hPa | 0 mm | - | 34 W/m² | - |
| 1777982037 | 14.44° C | 83% | 1006.3 hPa | 0 mm | - | 29 W/m² | - |
| 1777981735 | 14.44° C | 83% | 1006.2 hPa | 0 mm | - | 32 W/m² | - |
| 1777981431 | 14.44° C | 83% | 1006.2 hPa | 0 mm | - | 46 W/m² | - |
| 1777981128 | 14.44° C | 83% | 1006.1 hPa | 0 mm | - | 42 W/m² | - |
| 1777980825 | 14.44° C | 83% | 1005.5 hPa | 0 mm | - | 28 W/m² | - |
| 1777980520 | 14.44° C | 83% | 1005.9 hPa | 0 mm | - | 35 W/m² | - |
* Rain latest hour (hover to see other rain measurements)
** Current wind speed in m/s (hover to see current wind gust speed)